Location: Praha
(50.0830°N, 14.4670°E)
Time: 07:54:44
(UTC+01:00)

X-37B - Visible Passes

Search period start: 28 January 2022 00:00
Search period end: 07 February 2022 00:00
Orbit: 334 x 337 km, 45.0° (Epoch: 11 January)

Date Brightness Start Highest point End Pass type
(mag) Time Alt. Az. Time Alt. Az. Time Alt. Az.
28 Jan 2.9 18:58:35 10° SSW 18:59:29 15° SSW 18:59:29 15° SSW visible
29 Jan 2.9 17:45:02 10° S 17:46:00 11° SSE 17:46:58 10° SE visible
29 Jan 3.2 19:18:26 10° SW 19:19:08 15° SW 19:19:08 15° SW visible
30 Jan 2.4 18:04:01 10° SSW 18:06:06 18° SSE 18:07:32 14° SE visible
30 Jan 3.8 19:38:36 10° WSW 19:38:45 11° WSW 19:38:45 11° WSW visible
31 Jan 1.9 18:23:52 10° SW 18:26:18 25° S 18:27:08 22° SE visible
01 Feb 1.7 18:44:02 10° WSW 18:46:33 29° S 18:46:43 29° S visible
02 Feb 2.1 17:29:18 10° SW 17:31:44 25° S 17:34:10 10° ESE visible
02 Feb 2.2 19:04:21 10° WSW 19:06:20 25° SSW 19:06:20 25° SSW visible
03 Feb 1.9 17:49:28 10° WSW 17:51:59 29° S 17:54:30 10° ESE visible
03 Feb 3.1 19:24:52 10° WSW 19:25:59 16° SW 19:25:59 16° SW visible
04 Feb 2.1 18:09:47 10° WSW 18:12:14 26° S 18:14:27 11° SE visible
05 Feb 2.6 18:30:18 10° WSW 18:32:26 19° SSW 18:34:14 12° SSE visible
06 Feb 3.2 18:51:22 10° SW 18:52:34 12° SSW 18:53:45 10° S visible
